User: anonymous   Login
Location: Unspecified
(0.0000°N, 0.0000°E)
Time: 12:02:44
(UTC+02:00)
Language:

CZ-4 DEB - Orbit

View from above orbital plane
View from above orbital plane
View from above satellite
View from above satellite

Ground track
Ground track

The orbit data is extracted from the following two-line orbital elements,

1 29508U 06046D   16273.23455645  .00063606  00000-0  90603-3 0  9995
2 29508  97.6374 320.3581 0002459 165.2569 194.8757 15.56124464545135
Epoch (UTC): 29 September 2016 05:37:45
Eccentricity: 0.0002459
inclination: 97.6374°
perigee height: 397 km
apogee height: 400 km
right ascension of ascending node: 320.3581°
argument of perigee: 165.2569°
revolutions per day: 15.56124464
mean anomaly at epoch: 194.8757°
orbit number at epoch: 54513

The dashed part of the orbit path shows where the satellite is in the earth's shadow,  

DLR